When you browse on this site, cookies collect data to enhance your experience and personalize the content and advertising you see.
Visit our Privacy Policy to learn more. By continuing to use the site, you agree to this use of cookies and data.
  • în România
  • Lista ţărilor
  • Pe 7 zile
  • Temperatura apei
  • Meteo pe hartă
  • Widget-uri
  • user-avatar
    Intrare

    Meteo pe oră la Da Nang

    Astăzi, 5 Iunie, Vineri

    Timp Temperatura Precipitaţii Vânt Presiune Umiditate
    00:00 +28°C° 0 mm 2 m/s 754 mmHg 89%
    01:00 +28°C° 0 mm 2 m/s 754 mmHg 89%
    02:00 +28°C° 0 mm 2 m/s 754 mmHg 87%
    03:00 +28°C° 0 mm 2 m/s 753 mmHg 86%
    04:00 +28°C° 0 mm 2 m/s 753 mmHg 84%
    05:00 +29°C° 0 mm 2 m/s 754 mmHg 81%
    06:00 +29°C° 0 mm 2 m/s 754 mmHg 78%
    07:00 +30°C° 0 mm 2 m/s 754 mmHg 75%
    08:00 +34°C° 0 mm 2 m/s 754 mmHg 67%
    09:00 +36°C° 0 mm 2 m/s 755 mmHg 58%
    10:00 +38°C° 0 mm 2 m/s 755 mmHg 50%
    11:00 +39°C° 0 mm 2 m/s 754 mmHg 47%
    12:00 +40°C° 0 mm 2 m/s 754 mmHg 44%
    13:00 +41°C° 0 mm 2 m/s 753 mmHg 40%
    14:00 +39°C° 0.1 mm 2 m/s 753 mmHg 48%
    15:00 +37°C° 0.1 mm 2 m/s 752 mmHg 55%
    16:00 +36°C° 0.1 mm 3 m/s 752 mmHg 62%
    17:00 +34°C° 0 mm 2 m/s 752 mmHg 70%
    18:00 +31°C° 0 mm 1 m/s 753 mmHg 78%
    19:00 +30°C° 0 mm 1 m/s 753 mmHg 86%
    20:00 +30°C° 0 mm 1 m/s 753 mmHg 85%
    21:00 +29°C° 0 mm 1 m/s 754 mmHg 84%
    22:00 +29°C° 0 mm 2 m/s 754 mmHg 83%
    23:00 +29°C° 0 mm 2 m/s 754 mmHg 81%

    Mâine, 6 Iunie, Sâmbătă

    Timp Temperatura Precipitaţii Vânt Presiune Umiditate
    00:00 +29°C° 0 mm 2 m/s 753 mmHg 79%
    01:00 +29°C° 0 mm 2 m/s 753 mmHg 77%
    02:00 +28°C° 0 mm 2 m/s 753 mmHg 77%
    03:00 +28°C° 0 mm 2 m/s 752 mmHg 77%
    04:00 +28°C° 0 mm 2 m/s 752 mmHg 77%
    05:00 +29°C° 0 mm 2 m/s 753 mmHg 75%
    06:00 +30°C° 0 mm 2 m/s 753 mmHg 73%
    07:00 +31°C° 0 mm 2 m/s 753 mmHg 71%
    08:00 +34°C° 0 mm 2 m/s 754 mmHg 63%
    09:00 +35°C° 0 mm 1 m/s 754 mmHg 55%
    10:00 +37°C° 0 mm 1 m/s 754 mmHg 48%
    11:00 +39°C° 0 mm 2 m/s 753 mmHg 45%
    12:00 +41°C° 0 mm 2 m/s 753 mmHg 42%
    13:00 +43°C° 0 mm 3 m/s 752 mmHg 39%
    14:00 +39°C° 0.3 mm 2 m/s 752 mmHg 47%
    15:00 +37°C° 0.3 mm 2 m/s 751 mmHg 56%
    16:00 +35°C° 0.3 mm 2 m/s 751 mmHg 65%
    17:00 +32°C° 0.1 mm 2 m/s 751 mmHg 72%
    18:00 +31°C° 0.1 mm 2 m/s 752 mmHg 79%
    19:00 +29°C° 0.1 mm 1 m/s 752 mmHg 86%
    20:00 +29°C° 0 mm 1 m/s 753 mmHg 86%
    21:00 +29°C° 0 mm 2 m/s 753 mmHg 86%
    22:00 +29°C° 0 mm 2 m/s 754 mmHg 85%
    23:00 +29°C° 0 mm 2 m/s 753 mmHg 85%

    Poimâine, 7 Iunie, Duminică

    Timp Temperatura Precipitaţii Vânt Presiune Umiditate
    00:00 +29°C° 0 mm 2 m/s 753 mmHg 84%
    01:00 +29°C° 0 mm 2 m/s 752 mmHg 84%
    02:00 +29°C° 0 mm 2 m/s 752 mmHg 82%
    03:00 +29°C° 0 mm 2 m/s 752 mmHg 80%
    04:00 +29°C° 0 mm 2 m/s 752 mmHg 78%
    05:00 +30°C° 0 mm 2 m/s 752 mmHg 76%
    06:00 +30°C° 0 mm 2 m/s 753 mmHg 74%
    07:00 +31°C° 0 mm 2 m/s 753 mmHg 72%
    08:00 +34°C° 0 mm 2 m/s 753 mmHg 66%
    09:00 +35°C° 0 mm 2 m/s 753 mmHg 59%
    10:00 +37°C° 0 mm 3 m/s 753 mmHg 52%
    11:00 +38°C° 0 mm 2 m/s 753 mmHg 48%
    12:00 +40°C° 0 mm 2 m/s 752 mmHg 44%
    13:00 +41°C° 0 mm 1 m/s 752 mmHg 40%
    14:00 +40°C° 0 mm 2 m/s 751 mmHg 45%
    15:00 +38°C° 0 mm 2 m/s 751 mmHg 50%
    16:00 +37°C° 0 mm 2 m/s 750 mmHg 55%
    17:00 +35°C° 0 mm 2 m/s 751 mmHg 65%
    18:00 +32°C° 0 mm 2 m/s 751 mmHg 74%
    19:00 +30°C° 0 mm 2 m/s 752 mmHg 83%
    20:00 +30°C° 0.1 mm 2 m/s 752 mmHg 84%
    21:00 +29°C° 0.1 mm 2 m/s 753 mmHg 85%
    22:00 +29°C° 0.1 mm 2 m/s 753 mmHg 86%
    23:00 +29°C° 0 mm 2 m/s 753 mmHg 85%

    8 Iunie, Luni

    Timp Temperatura Precipitaţii Vânt Presiune Umiditate
    00:00 +29°C° 0 mm 2 m/s 752 mmHg 84%
    01:00 +29°C° 0 mm 2 m/s 752 mmHg 83%
    02:00 +29°C° 0 mm 2 m/s 752 mmHg 82%
    03:00 +29°C° 0 mm 2 m/s 751 mmHg 80%
    04:00 +29°C° 0 mm 2 m/s 751 mmHg 79%
    05:00 +29°C° 0 mm 2 m/s 752 mmHg 77%
    06:00 +30°C° 0 mm 2 m/s 752 mmHg 75%
    07:00 +31°C° 0 mm 2 m/s 752 mmHg 72%
    08:00 +34°C° 0 mm 3 m/s 753 mmHg 64%
    09:00 +36°C° 0 mm 3 m/s 753 mmHg 55%
    10:00 +39°C° 0 mm 3 m/s 753 mmHg 47%
    11:00 +40°C° 0 mm 3 m/s 753 mmHg 44%
    12:00 +42°C° 0 mm 3 m/s 752 mmHg 41%
    13:00 +42°C° 0 mm 2 m/s 752 mmHg 38%
    14:00 +40°C° 0 mm 3 m/s 751 mmHg 45%
    15:00 +38°C° 0 mm 3 m/s 751 mmHg 52%
    16:00 +36°C° 0 mm 3 m/s 751 mmHg 59%
    17:00 +34°C° 0.7 mm 2 m/s 751 mmHg 70%
    18:00 +31°C° 0.7 mm 2 m/s 751 mmHg 80%
    19:00 +29°C° 0.7 mm 2 m/s 752 mmHg 91%
    20:00 +29°C° 0 mm 2 m/s 752 mmHg 91%
    21:00 +28°C° 0 mm 2 m/s 753 mmHg 91%
    22:00 +28°C° 0 mm 2 m/s 753 mmHg 92%
    23:00 +28°C° 0 mm 2 m/s 753 mmHg 91%

    9 Iunie, Marţi

    Timp Temperatura Precipitaţii Vânt Presiune Umiditate
    00:00 +28°C° 0 mm 2 m/s 753 mmHg 91%
    01:00 +28°C° 0 mm 2 m/s 752 mmHg 90%
    02:00 +28°C° 0 mm 2 m/s 752 mmHg 89%
    03:00 +28°C° 0 mm 1 m/s 752 mmHg 88%
    04:00 +28°C° 0 mm 1 m/s 752 mmHg 88%
    05:00 +29°C° 0 mm 1 m/s 752 mmHg 84%
    06:00 +29°C° 0 mm 1 m/s 753 mmHg 81%
    07:00 +30°C° 0 mm 1 m/s 753 mmHg 77%
    08:00 +33°C° 0 mm 1 m/s 754 mmHg 67%
    09:00 +35°C° 0 mm 1 m/s 754 mmHg 57%
    10:00 +39°C° 0 mm 1 m/s 754 mmHg 47%
    11:00 +39°C° 0 mm 2 m/s 754 mmHg 46%
    12:00 +40°C° 0 mm 2 m/s 753 mmHg 45%
    13:00 +40°C° 0 mm 3 m/s 753 mmHg 44%
    14:00 +39°C° 0.2 mm 3 m/s 752 mmHg 50%
    15:00 +37°C° 0.2 mm 3 m/s 752 mmHg 57%
    16:00 +36°C° 0.2 mm 3 m/s 752 mmHg 63%
    17:00 +34°C° 0.9 mm 2 m/s 752 mmHg 73%
    18:00 +31°C° 0.9 mm 2 m/s 753 mmHg 82%
    19:00 +29°C° 0.9 mm 2 m/s 753 mmHg 91%
    20:00 +28°C° 0.3 mm 1 m/s 754 mmHg 92%
    21:00 +28°C° 0.3 mm 1 m/s 754 mmHg 93%
    22:00 +28°C° 0.3 mm 1 m/s 754 mmHg 93%
    23:00 +28°C° 0 mm 1 m/s 754 mmHg 93%

    10 Iunie, Miercuri

    Timp Temperatura Precipitaţii Vânt Presiune Umiditate
    00:00 +27°C° 0 mm 2 m/s 754 mmHg 93%
    01:00 +27°C° 0 mm 2 m/s 753 mmHg 92%
    02:00 +27°C° 0 mm 2 m/s 753 mmHg 91%
    03:00 +27°C° 0 mm 2 m/s 753 mmHg 90%
    04:00 +27°C° 0 mm 2 m/s 753 mmHg 89%
    05:00 +28°C° 0 mm 2 m/s 753 mmHg 85%
    06:00 +29°C° 0 mm 2 m/s 754 mmHg 82%
    07:00 +30°C° 0 mm 2 m/s 754 mmHg 78%
    08:00 +34°C° 0 mm 2 m/s 754 mmHg 66%
    09:00 +37°C° 0 mm 2 m/s 754 mmHg 55%
    10:00 +40°C° 0 mm 2 m/s 755 mmHg 43%
    11:00 +40°C° 0 mm 3 m/s 754 mmHg 44%
    12:00 +40°C° 0 mm 3 m/s 753 mmHg 44%
    13:00 +41°C° 0 mm 4 m/s 753 mmHg 45%
    14:00 +39°C° 0 mm 3 m/s 753 mmHg 50%
    15:00 +37°C° 0 mm 3 m/s 752 mmHg 55%
    16:00 +36°C° 0 mm 3 m/s 752 mmHg 60%
    17:00 +34°C° 1.4 mm 3 m/s 753 mmHg 71%
    18:00 +31°C° 1.4 mm 3 m/s 753 mmHg 82%
    19:00 +28°C° 1.4 mm 3 m/s 753 mmHg 93%
    20:00 +28°C° 0.2 mm 3 m/s 754 mmHg 94%
    21:00 +27°C° 0.2 mm 3 m/s 755 mmHg 94%
    22:00 +26°C° 0.2 mm 3 m/s 755 mmHg 95%
    23:00 +26°C° 0.4 mm 2 m/s 755 mmHg 93%
    Arată mai mult